STARLINK-1789 (46690 NORAD) Tracking and Keplerian Element Data

This shows tracking and keplerian element data for the satellite.

Feedback or suggestion? Click here.




ElementValue
Catalog46690
NameSTARLINK-1789
Epoch Orbit178
Epoch Day338.66668981
Epoch Year2020
RAAN242.422
Inclination53.0543
Eccentricity0.0001093
Argument of Perigee46.1271
Mean Anonmoly174.6305
Mean Motion15.62721735
Decay Rate0.00102306
L11 46690U 20073W 20338.66668981 .00102306 00000-0 11105-2 0 9995
L22 46690 53.0543 242.4220 0001093 46.1271 174.6305 15.62721735 1788

Live tracking and technical data element details for STARLINK-1789 (NORAD 46690). STARLINK-1789 can be tracked NOW for your location showing map with azimuth and elevation plus other details from your city location.

Track the satellite on the map from your city or location and see movement details for azimuth, elevation, latitude, longitude, range, height, and movement on the map or in text.







IsCatalogInMostPopularTable: catalog: 46690, numindb: 12
Update: records affected: 1



GetName: 46690 STARLINK-1789

Hit Count: updated at: Sat, 05 Dec 2020 06:08:59 GMT